Home   Weather   Valletta   Past weeks

Flag for Malta Past Weather in Valletta, Malta — Yesterday and Last 2 Weeks

79 °F

Passing clouds.

Feels Like: 80 °F
Forecast: 72 / 82 °F
Wind: 8 mph from Northeast

Location: Luqa

Current Time: Oct 22, 2016 at 3:40:35 PM

Latest Report: Oct 22, 2016 at 2:45 PM

Visibility: N/A

Pressure: 29.98 "Hg

Humidity: 58%

Dew Point: 63 °F

Location of VallettaLocation

Past Weather in Valletta — Graph


Valletta Temperature Yesterday

Maximum temperature yesterday: 81 °F (at 1:15 PM)
Minimum temperature yesterday: 72 °F (at 10:15 PM)
Average temperature yesterday: 76 °F

High & Low Weather Summary for the Past Weeks

High86 °F (Oct 15, 4:45 PM)100% (Oct 10, 7:45 AM)30.21 "Hg (Oct 10, 7:45 AM)
Low64 °F (Oct 9, 3:15 AM)39% (Oct 8, 12:15 PM)29.86 "Hg (Oct 12, 3:45 AM)
Average74 °F76%30.01 "Hg
* Reported Oct 7 2:15 PM — Oct 22 2:15 PM, Valletta, Weather by CustomWeather, © 2016

Note: Actual official high and low records may vary slightly from our data, if they occured in-between our weather recording intervals... More about our weather records


Valletta Weather History for the Previous 24 Hours

Scroll right to see more
Time TempWeatherWind HumidityBarometerVisibility
2:15 PM
Sat, Oct 22
81 °FPassing clouds.8 mph54%30.01 "HgN/A
1:45 PM81 °FPassing clouds.7 mph58%30.01 "HgN/A
1:15 PM81 °FPassing clouds.7 mph54%30.01 "HgN/A
12:45 PM79 °FPassing clouds.6 mph58%30.01 "HgN/A
12:15 PM79 °FPassing clouds.6 mph58%30.01 "HgN/A
11:45 AM79 °FPassing clouds.6 mph61%30.01 "HgN/A
11:15 AM77 °FSunny.8 mph61%30.01 "Hg10 mi
10:45 AM77 °FPassing clouds.8 mph61%30.01 "HgN/A
10:15 AM75 °FPassing clouds.9 mph65%30.01 "HgN/A
9:45 AM75 °FSunny.9 mph74%30.01 "Hg10 mi
9:15 AM72 °FPassing clouds.7 mph83%29.98 "HgN/A
8:45 AM72 °FPassing clouds.6 mph83%29.98 "HgN/A
8:15 AM72 °FSunny.7 mph83%29.95 "Hg10 mi
7:45 AM72 °FSunny.7 mph83%29.95 "Hg10 mi
7:15 AM72 °FPassing clouds.6 mph83%29.95 "HgN/A
6:45 AM72 °FLight rain. Clear.10 mph83%29.95 "HgN/A
6:15 AM72 °FClear.9 mph78%29.95 "Hg10 mi
5:45 AM70 °FClear.8 mph83%29.95 "Hg10 mi
5:15 AM72 °FClear.7 mph78%29.95 "Hg10 mi
4:45 AM72 °FClear.6 mph78%29.95 "Hg10 mi
4:15 AM72 °FPassing clouds.3 mph83%29.95 "HgN/A
3:45 AM72 °FClear.7 mph88%29.95 "Hg10 mi
3:15 AM70 °FClear.9 mph94%29.95 "Hg10 mi
2:45 AM70 °FClear.6 mph94%29.95 "Hg10 mi
2:15 AM72 °FClear.5 mph88%29.95 "Hg10 mi
1:45 AM72 °FClear.5 mph94%29.95 "Hg10 mi
1:15 AM72 °FClear.3 mph94%29.95 "Hg10 mi
12:45 AM72 °FClear.1 mph94%29.95 "Hg10 mi
12:15 AM72 °FClear.2 mph94%29.95 "Hg10 mi
11:45 PM
Fri, Oct 21
73 °FPassing clouds.3 mph89%29.95 "HgN/A
11:15 PM73 °FPassing clouds.5 mph89%29.95 "HgN/A
10:45 PM72 °FPassing clouds.3 mph94%29.98 "HgN/A
10:15 PM72 °FPassing clouds.2 mph94%29.95 "HgN/A
9:45 PM73 °FPassing clouds.2 mph94%29.95 "HgN/A
9:15 PM73 °FPassing clouds.5 mph94%29.95 "HgN/A
8:45 PM75 °FPassing clouds.6 mph89%29.95 "HgN/A
8:15 PM75 °FPassing clouds.5 mph89%29.92 "HgN/A
7:45 PM75 °FPassing clouds.3 mph89%29.92 "Hg5 mi
7:15 PM75 °FPassing clouds.3 mph89%29.92 "Hg5 mi
6:45 PM75 °FPassing clouds.3 mph89%29.92 "Hg5 mi
6:15 PM77 °FPassing clouds.5 mph83%29.92 "HgN/A
5:45 PM77 °FPassing clouds.7 mph83%29.92 "HgN/A
5:15 PM79 °FPassing clouds.10 mph74%29.89 "HgN/A
4:45 PM79 °FPassing clouds.12 mph74%29.89 "HgN/A
4:15 PM79 °FPassing clouds.12 mph74%29.89 "HgN/A
3:45 PM79 °FPassing clouds.14 mph74%29.89 "HgN/A
3:15 PM81 °FPassing clouds.15 mph66%29.89 "HgN/A
Weather by CustomWeather, © 2016

See weather overviewHow to use our weather pages